Total_Precipitation_Accumulation
1.38 1.41 1.57 1.33 1.71 1.90 1.75 1.99 1.91 1.96 2.29 2.18 1.87 1.86 1.87 1.72 1.88 2.06 2.05 2.15 2.45 2.62 2.66 3.03 3.42 3.89 3.99 4.16 4.12 3.71 3.29 3.22 3.45 2.72 1.98 1.85 1.83 1.33 1.31 1.27 0.99 0.84 0.72
2.76 2.98 2.72 2.99 3.40 2.70 2.75 3.00 2.38 2.15 1.95 1.59 1.41 1.41 1.52 1.65 1.84 1.91 1.94 2.00 1.86 1.89 2.16 2.38 2.74 2.99 3.14 3.31 3.65 3.94 3.87 3.95 3.96 3.48 3.40 3.47 2.97 2.19 1.82 1.51 1.07 0.97 0.75
2.50 3.07 3.10 3.35 3.02 2.91 2.48 2.17 1.76 1.73 1.76 1.68 1.43 1.37 1.36 1.50 1.64 1.99 1.93 1.76 1.87 2.17 2.27 2.35 2.44 2.52 2.61 2.76 2.83 2.85 2.83 3.15 3.60 3.59 3.71 3.74 3.30 2.63 2.26 1.87 1.66 1.36 0.91
2.10 2.14 2.52 2.37 1.74 1.74 2.15 1.77 1.64 1.60 1.78 2.11 2.22 2.29 2.13 1.78 1.71 1.70 1.76 1.87 1.85 2.09 2.16 1.93 2.16 2.25 2.08 2.13 2.38 2.55 2.52 2.92 3.14 3.15 3.44 3.71 3.47 3.12 2.67 2.57 2.45 1.94 1.80
2.14 1.81 1.52 1.54 1.20 1.09 1.15 1.14 1.05 0.94 1.14 1.75 1.84 1.89 1.77 1.62 1.66 1.28 1.03 1.45 1.65 1.62 1.94 1.69 1.48 1.66 1.65 1.33 1.43 1.96 2.35 2.65 2.86 2.80 3.08 3.44 3.46 3.12 2.99 2.74 2.55 2.41 2.38
1.45 1.48 1.54 1.17 1.17 1.19 1.07 1.07 0.78 0.73 0.75 0.93 1.17 1.31 1.43 1.21 1.37 1.01 0.96 1.04 1.06 1.01 1.00 0.96 1.05 1.31 1.11 1.24 1.31 1.31 1.44 1.80 1.96 2.04 2.14 2.36 2.42 2.17 2.16 2.39 2.50 2.87 2.98
1.58 1.33 0.99 1.06 1.14 1.22 1.22 1.29 1.36 1.30 1.12 1.02 0.99 0.99 1.22 1.30 1.49 1.40 1.26 1.12 1.23 1.28 1.23 1.21 1.10 1.07 1.20 0.93 1.28 1.42 1.37 1.56 1.68 1.59 1.67 1.58 1.71 1.66 1.68 1.91 1.96 1.98 1.98
1.51 1.46 1.09 0.96 1.13 1.32 1.35 1.33 1.58 1.61 1.43 1.38 1.36 1.13 0.84 0.90 1.13 1.06 1.42 1.51 1.69 1.64 1.59 1.42 1.43 1.50 1.54 1.49 1.50 1.79 1.56 1.43 1.51 1.60 1.70 1.62 1.59 1.57 1.68 1.70 1.73 1.97 2.10
1.60 1.56 1.55 1.19 1.17 1.35 1.57 1.56 1.40 1.41 1.52 1.53 1.49 1.49 1.31 1.17 1.36 1.12 1.10 1.00 1.22 1.31 1.26 1.30 1.29 1.15 1.88 1.92 1.61 1.82 2.05 2.23 2.56 2.57 2.51 2.54 2.56 2.41 2.09 2.37 2.87 3.22 3.16
1.83 1.72 1.84 1.90 1.84 1.95 1.86 1.74 1.85 1.83 1.77 1.72 1.66 1.55 1.80 1.50 1.96 1.62 1.55 1.38 1.49 1.51 1.41 1.43 1.93 1.47 1.89 1.62 1.60 1.58 1.75 1.78 1.92 2.25 2.31 2.21 2.18 2.22 2.60 2.34 2.22 2.29 2.24
1.07 1.69 1.73 1.92 1.80 1.69 1.83 1.92 2.05 2.33 2.48 2.41 2.27 1.99 1.77 1.88 2.03 2.11 2.07 1.87 1.92 1.94 1.91 1.84 2.06 2.85 2.21 2.15 2.26 2.19 2.96 3.09 3.14 2.79 2.64 2.42 2.14 2.06 2.15 1.88 1.80 2.10 2.22
0.54 0.72 1.16 1.27 1.19 1.31 1.33 1.41 1.52 1.51 1.65 1.82 1.91 2.06 1.95 1.87 2.10 2.04 2.05 2.29 2.60 2.31 2.49 2.51 2.96 3.18 2.64 2.81 3.11 3.65 3.76 3.38 3.08 3.29 3.38 3.13 2.82 2.53 2.28 2.06 2.01 2.07 1.97
0.20 0.29 0.56 0.95 1.04 0.90 1.10 1.18 1.05 1.03 0.98 1.08 1.11 1.16 1.31 1.38 1.52 1.78 1.73 1.87 2.04 2.12 2.57 2.99 3.07 2.66 2.35 2.48 2.88 3.15 3.23 3.24 3.40 3.58 3.49 3.28 2.90 2.67 2.57 2.70 2.66 2.61 2.50
0.08 0.11 0.16 0.43 0.89 0.77 0.76 0.80 0.83 0.86 0.89 0.95 1.00 1.04 1.07 1.11 1.19 1.32 1.46 1.60 1.82 2.14 2.53 2.78 2.69 2.50 2.52 2.71 3.04 3.22 3.34 3.41 3.49 3.46 3.32 3.24 3.12 3.07 2.98 2.74 2.66 2.65 2.49
0.10 0.15 0.18 0.15 0.31 0.63 0.69 0.79 0.74 0.91 1.01 1.05 1.25 1.30 1.36 1.57 1.75 1.66 1.58 1.68 1.85 1.89 1.88 2.03 2.21 2.26 2.32 2.39 2.46 2.56 2.63 2.71 2.73 2.70 2.61 2.45 2.34 2.19 2.13 2.10 2.01 1.77 1.67
0.20 0.20 0.37 0.34 0.34 0.48 0.69 0.96 1.13 0.88 0.75 0.74 0.85 0.98 1.38 1.60 1.71 1.68 1.73 1.79 1.83 1.90 2.06 2.10 2.14 2.16 2.14 2.02 1.85 1.82 1.63 1.54 1.55 1.57 1.58 1.48 1.42 1.42 1.45 1.37 1.24 1.13 1.16
0.34 0.37 0.38 0.49 0.47 0.52 0.68 0.78 1.13 1.36 1.25 1.25 1.28 1.32 1.29 1.51 1.47 1.41 1.34 1.35 1.37 1.28 1.33 1.28 1.25 1.24 1.14 1.13 1.18 1.12 1.20 1.11 0.98 0.98 0.98 0.92 0.93 0.93 0.87 0.92 0.93 0.87 0.85
1.07 1.19 1.16 1.26 1.29 1.20 1.15 1.22 1.39 1.42 1.52 1.77 1.68 1.38 1.24 1.14 1.03 0.93 0.91 0.84 0.96 0.87 0.84 0.79 0.81 0.75 0.66 0.66 0.74 0.82 0.83 0.88 0.87 0.85 0.84 0.82 0.79 0.83 0.86 0.77 0.65 0.64 0.60
1.06 1.09 1.10 1.20 1.32 1.36 1.24 1.16 1.26 1.30 1.17 1.07 1.04 1.03 0.88 0.72 0.68 0.65 0.62 0.76 0.74 0.66 0.61 0.58 0.56 0.51 0.50 0.46 0.51 0.56 0.61 0.64 0.70 0.78 0.76 0.72 0.74 0.69 0.67 0.61 0.55 0.48 0.46
0.91 1.06 0.93 0.96 1.13 1.18 1.15 1.02 1.04 1.05 1.03 1.00 0.90 0.89 0.91 0.79 0.92 0.84 0.70 0.64 0.58 0.53 0.50 0.42 0.39 0.39 0.41 0.45 0.52 0.60 0.64 0.58 0.59 0.62 0.64 0.66 0.71 0.64 0.65 0.59 0.56 0.58 0.45
1.18 1.26 1.14 0.98 0.99 1.02 0.97 0.91 0.83 0.78 0.76 0.80 0.80 0.78 0.58 0.60 0.68 0.64 0.51 0.44 0.39 0.37 0.39 0.36 0.37 0.43 0.46 0.46 0.44 0.44 0.41 0.41 0.41 0.46 0.48 0.56 0.62 0.63 0.54 0.46 0.38 0.32 0.33
1.07 1.03 1.00 0.95 0.82 0.80 0.78 0.76 0.79 0.78 0.72 0.69 0.69 0.65 0.50 0.54 0.51 0.50 0.51 0.51 0.48 0.44 0.43 0.44 0.40 0.35 0.33 0.39 0.38 0.40 0.38 0.38 0.41 0.44 0.45 0.45 0.44 0.46 0.48 0.46 0.43 0.43 0.38
0.82 0.78 0.75 0.80 0.73 0.65 0.63 0.62 0.64 0.62 0.55 0.51 0.54 0.63 0.56 0.51 0.54 0.58 0.59 0.49 0.41 0.33 0.27 0.30 0.35 0.31 0.32 0.35 0.38 0.38 0.36 0.30 0.32 0.39 0.45 0.46 0.45 0.45 0.43 0.42 0.41 0.38 0.36
0.68 0.70 0.65 0.61 0.58 0.50 0.45 0.42 0.41 0.46 0.49 0.56 0.60 0.59 0.48 0.45 0.53 0.60 0.51 0.43 0.37 0.33 0.34 0.36 0.32 0.31 0.32 0.36 0.39 0.40 0.39 0.38 0.41 0.39 0.40 0.42 0.37 0.32 0.36 0.38 0.33 0.31 0.31
0.59 0.63 0.61 0.59 0.57 0.55 0.52 0.49 0.52 0.54 0.54 0.54 0.59 0.57 0.53 0.52 0.49 0.45 0.48 0.47 0.46 0.41 0.34 0.32 0.33 0.32 0.32 0.35 0.35 0.35 0.35 0.44 0.49 0.47 0.56 0.44 0.36 0.31 0.32 0.34 0.34 0.40 0.32
0.44 0.50 0.57 0.62 0.69 0.75 0.76 0.69 0.59 0.50 0.48 0.48 0.50 0.52 0.49 0.45 0.41 0.43 0.48 0.47 0.45 0.40 0.37 0.35 0.32 0.27 0.28 0.32 0.34 0.40 0.39 0.41 0.51 0.51 0.57 0.51 0.47 0.43 0.41 0.37 0.30 0.32 0.25